User: anonymous   Login
Location: Churchill Northern Studies Centre
(58.7378°N, 93.8201°W)
Time: 08:03:47
(UTC-05:00)
Language:

Vanguard 3 - Orbit

View from above orbital plane
View from above orbital plane
View from above satellite
View from above satellite

Ground track
Ground track

The orbit data is extracted from the following two-line orbital elements,

1 00020U 59007A   18222.86138120  .00000019  00000-0 -64030-5 0  9996
2 00020  33.3575  72.1954 1668218 277.9508  63.5791 11.55590944152347
Epoch (UTC): 10 August 2018 20:40:23
Eccentricity: 0.1668218
inclination: 33.3575°
perigee height: 507 km
apogee height: 3264 km
right ascension of ascending node: 72.1954°
argument of perigee: 277.9508°
revolutions per day: 11.55590944
mean anomaly at epoch: 63.5791°
orbit number at epoch: 15234

The dashed part of the orbit path shows where the satellite is in the earth's shadow,  

DLR